This demonstration page uses our WeatherBlox Daily Observations layout. Learn more.

Left ArrowRight Arrow

Hourly Observations for April 16, 2015

Temp ( °F °C ) Dew Point ( °F °C ) Humidity (%) Winds ( mph kmh ) Pressure ( in mb ) Visibility ( mi km ) Precip ( " mm )
12:51 am 00:51 Clear 57 13.9 2 -16.7 10 10 WNW 15 24 29.76 1008 10 16 0.00 0.00
1:51 am 01:51 Clear 55 12.8 1 -17.2 11 11 WNW 13 20 29.75 1008 10 16 0.00 0.00
2:51 am 02:51 Clear 52 11.1 1 -17.2 12 12 NW 16 26 29.75 1007 10 16 0.00 0.00
3:51 am 03:51 Clear 50 10 2 -16.7 14 14 NW 16 26 29.76 1008 10 16 0.00 0.00
4:51 am 04:51 Clear 48 8.9 2 -16.7 15 15 NW 16 26 29.76 1008 10 16 0.00 0.00
5:51 am 05:51 Sunny 47 8.3 2 -16.7 15 15 NW 17 28 29.79 1009 10 16 0.00 0.00
6:51 am 06:51 Sunny 50 10 3 -16.1 14 14 N 8 13 29.82 1010 10 16 0.00 0.00
7:51 am 07:51 Sunny 51 10.6 7 -13.9 17 17 SW 6 9 29.84 1011 10 16 0.00 0.00
8:51 am 08:51 Sunny 56 13.3 5 -15 13 13 W 10 17 29.85 1011 10 16 0.00 0.00
9:51 am 09:51 Sunny 59 15 4 -15.6 11 11 NW 18 30 29.88 1012 10 16 0.00 0.00
10:51 am 10:51 Sunny 63 17.2 0 -17.8 8 8 WNW 21 33 29.85 1011 10 16 0.00 0.00
11:51 am 11:51 Sunny 64 17.8 0 -17.8 7 7 NW 21 33 29.85 1011 10 16 0.00 0.00
12:51 pm 12:51 Sunny 66 18.9 -2 -18.9 6 6 NW 22 35 29.84 1010 10 16 0.00 0.00
1:51 pm 13:51 Sunny 67 19.4 -2 -18.9 6 6 WNW 20 31 29.83 1010 10 16 0.00 0.00
2:51 pm 14:51 Sunny 67 19.4 -2 -18.9 6 6 WNW 21 33 29.83 1010 10 16 0.00 0.00
3:51 pm 15:51 Sunny 67 19.4 -3 -19.4 6 6 NW 18 30 29.84 1011 10 16 0.00 0.00
4:51 pm 16:51 Sunny 65 18.3 -1 -18.3 7 7 NW 21 33 29.85 1011 10 16 0.00 0.00
5:51 pm 17:51 Sunny 64 17.8 0 -17.8 7 7 NW 15 24 29.88 1012 10 16 0.00 0.00
6:51 pm 18:51 Clear 60 15.6 0 -17.8 9 9 WNW 17 28 29.90 1012 10 16 0.00 0.00
7:51 pm 19:51 Clear 57 13.9 3 -16.1 11 11 WNW 13 20 29.94 1014 10 16 0.00 0.00
8:51 pm 20:51 Clear 51 10.6 3 -16.1 14 14 NNW 9 15 29.98 1015 10 16 0.00 0.00
9:51 pm 21:51 Clear 50 10 3 -16.1 14 14 NNW 7 11 29.99 1016 10 16 0.00 0.00
10:51 pm 22:51 Clear 47 8.3 3 -16.1 16 16 N 6 9 30.00 1016 10 16 0.00 0.00
11:51 pm 23:51 Clear 46 7.8 3 -16.1 17 17 N 8 13 30.00 1016 10 16 0.00 0.00

Powered by AerisWeather